User: anonymous   Login
Location: Chevoux
(46.3801°N, 4.9476°E)
Time: 15:34:55
(UTC+00:00)
Language:

Cosmos 1125 Rocket - Orbit

View from above orbital plane
View from above orbital plane
View from above satellite
View from above satellite

Ground track
Ground track

The orbit data is extracted from the following two-line orbital elements,

1 11511U 79078B   21110.52447168  .00000050  00000-0  25658-4 0  9997
2 11511  74.0355 255.6333 0015247 160.0025 200.1729 14.36922621180179
Epoch (UTC): 20 April 2021 12:35:14
Eccentricity: 0.0015247
inclination: 74.0355°
perigee height: 758 km
apogee height: 779 km
right ascension of ascending node: 255.6333°
argument of perigee: 160.0025°
revolutions per day: 14.36922621
mean anomaly at epoch: 200.1729°
orbit number at epoch: 18017

The dashed part of the orbit path shows where the satellite is in the earth's shadow,  

DLR